Regional Weather Roundup
Issued by NWS Cleveland, OH

Home | Current Version | Previous Version | Graphics & Text | Print | Product List | Glossary On
Versions: 1 2 3 4 5 6 7 8 9 10 11 12 13 14 15 16 17 18 19 20 21 22 23 24 25 26 27 28 29 30 31 32 33 34 35 36 37 38 39 40 41 42 43 44 45 46 47 48 49 50
000
ASUS41 KCLE 010510
RWRCLE
OHIO REGIONAL WEATHER ROUNDUP
NATIONAL WEATHER SERVICE WILMINGTON, OH
100 AM EDT WED OCT 01 2014

NOTE: "FAIR" INDICATES FEW OR NO CLOUDS BELOW 12,000 FEET WITH NO
SIGNIFICANT WEATHER AND/OR OBSTRUCTIONS TO VISIBILITY.

OHZ001>008-015>018-024>027-034-035-043-044-010600-
   NORTHWEST OHIO

CITY           SKY/WX    TMP DP  RH WIND       PRES   REMARKS
DEFIANCE       MOCLDY    48  45  89 N3        30.04R
FINDLAY        CLOUDY    55  50  83 N7        30.01R
TOLEDO EXPRESS CLEAR     50  47  89 N6        30.02S
TOLEDO METCALF MOCLDY    52  48  86 N5        30.03R
LIMA           MOCLDY    49  46  90 NE3       30.02R
$$

OHZ009>014-019>023-028>033-038-089-010600-
   NORTHEAST OHIO

CITY           SKY/WX    TMP DP  RH WIND       PRES   REMARKS
CLE-HOPKINS    MOCLDY    54  51  90 CALM      30.02R
CLE-LAKEFRONT  CLOUDY    60  53  77 N7        30.00R
CUY CO. ARPT   NOT AVBL
LORAIN-ELYRIA  MOCLDY    59  52  77 N5        30.01R
ASHTABULA      FOG       48  48 100 CALM      30.00S VSB 3/4
AKRON-CANTON   CLOUDY    54  52  93 NE8       29.99S FOG
WOOSTER        MOCLDY    47  45  93 CALM      30.00S FOG
MANSFIELD      CLOUDY    48  48 100 N5        30.00S FOG
YOUNGSTOWN     PTCLDY    53  52  96 N3        29.99S FOG
$$

OHZ042-051>053-060>062-070>072-077>081-010600-
  SOUTHWEST OHIO

CITY           SKY/WX    TMP DP  RH WIND       PRES   REMARKS
CINC-COVINGTON PTCLDY    57  48  72 NE9       29.99R
CINC-LUNKEN    CLEAR     53  49  86 N5        30.01R
HAMILTON       CLEAR     48  46  93 CALM      30.01S
DAYTON         CLEAR     48  45  89 N3        30.01S
WRIGHT-PAT AFB CLEAR     49  47  91 CALM      30.00S
DAYTON GENERAL CLEAR     47  45  93 NE6       29.99S
WILMINGTON     MOCLDY    48  45  89 N6        29.99F
$$

OHZ036-037-039>041-045>050-054>059-063>069-073>076-082>088-010600-
  CENTRAL AND SOUTHEAST OHIO

CITY           SKY/WX    TMP DP  RH WIND       PRES   REMARKS
COLUMBUS       MOCLDY    51  49  92 CALM      29.99S
OSU AIRPORT    MOCLDY    50  48  93 CALM      30.00R
BOLTON FIELD   CLOUDY    49  48  97 NW3       30.00F
RICKENBACK AFB CLOUDY    52  49  90 N5        29.99S
NEWARK         FOG       47  45  93 CALM      29.99R VSB 1/4
MARION         CLEAR     49  47  93 NW3       30.01R FOG
LANCASTER      CLOUDY    52  50  93 CALM      29.99S
ZANESVILLE     CLEAR     52  49  89 CALM      29.98S
NEW PHILLY     MOCLDY    51  49  92 CALM      29.99S
$$


USA.gov is the U.S. government's official web portal to all federal, state and local government web resources and services.